Weather History for Culiacan, Mexico

Change the Weather History Date:

Friday, March 1, 2013

  Actual Average Record
Temperature  
Mean Temperature 68 °F -  
Max Temperature 91 °F 84 °F 93 °F (1999)
Min Temperature 46 °F 55 °F 46 °F (2013)
Cooling Degree Days 4    
Growing Degree Days 18 (Base 50)    
Moisture  
Dew Point 49 °F    
Average Humidity 47    
Maximum Humidity 88    
Minimum Humidity 8    
Precipitation  
Precipitation 0.00 in - - ()
Sea Level Pressure  
Sea Level Pressure 29.92 in    
Wind  
Wind Speed 3 mph ()    
Max Wind Speed 17 mph    
Max Gust Speed -    
Visibility 14.7 miles    
Events      
Averages and records for this station are not official NWS values.
T = Trace of Precipitation, MM = Missing Value Source: Averaged Metar Reports

Daily Weather History Graph

Daily Weather History Graph

Search for Another Location

Airport:

Trip Planner

Search our weather history database for the weather conditions in past years. The results will help you decide how hot, cold, wet, or windy it might be!

Date:

Astronomy

Mar. 01, 2013 Rise Set
Actual Time 6:32 AM MST 6:12 PM MST
Civil Twilight 6:09 AM MST 6:35 PM MST
Nautical Twilight 5:42 AM MST 7:01 PM MST
Astronomical Twilight 5:16 AM MST 7:28 PM MST
Moon 10:14 PM MST (3/1) 8:52 AM MST (3/1)
Length of Visible Light 12h 26m
Length of Day
11h 40m
Waning Gibbous, 83% of the Moon is Illuminated
Mar 1
Waning Gibbous
Mar 4
Last Quarter
Mar 11
New
Mar 19
First Quarter
Mar 27
Full

Hourly Weather History & Observations

Time (MST) Temp. Dew Point Humidity Pressure Visibility Wind Dir Wind Speed Gust Speed Precip Events Conditions
1:41 AM 53.6 °F 46.4 °F 77% 29.93 in 10.0 mi Calm Calm - N/A   Clear
2:45 AM 53.6 °F 46.4 °F 77% 29.92 in 10.0 mi Calm Calm - N/A   Scattered Clouds
5:56 AM 55.4 °F 51.8 °F 88% 29.91 in 10.0 mi Calm Calm - N/A   Scattered Clouds
6:41 AM 53.6 °F 50.0 °F 88% 29.93 in 10.0 mi Calm Calm - N/A   Scattered Clouds
7:40 AM 57.2 °F 50.0 °F 77% 29.94 in 10.0 mi Calm Calm - N/A   Scattered Clouds
8:40 AM 66.2 °F 50.0 °F 56% 29.98 in 10.0 mi NNE 5.8 mph - N/A   Scattered Clouds
9:40 AM 73.4 °F 44.6 °F 36% 29.98 in 20.0 mi WNW 5.8 mph - N/A   Clear
10:35 AM 78 °F 47 °F 22% 29.99 in 10 mi SW 2.2 mph - -   Haze
10:44 AM 82.4 °F 46.4 °F 28% 29.95 in 20.0 mi Calm Calm - N/A   Clear
11:43 AM 86.0 °F 42.8 °F 22% 29.93 in 20.0 mi Calm Calm - N/A   Clear
12:43 PM 91.4 °F 35.6 °F 14% 29.89 in 20.0 mi NNW 4.6 mph - N/A   Clear
1:43 PM 89.6 °F 42.8 °F 20% 29.85 in 20.0 mi WSW 11.5 mph - N/A   Clear
1:50 PM 90 °F 36 °F 8% 29.88 in 10 mi South 2.2 mph - -   Haze
2:45 PM 91.4 °F 44.6 °F 20% 29.85 in 20.0 mi WNW 11.5 mph - N/A   Clear
3:40 PM 87.8 °F 50.0 °F 27% 29.84 in 20.0 mi WNW 17.3 mph - N/A   Clear
4:35 PM 86 °F 40 °F 11% 29.87 in 10 mi WSW 4.5 mph - -   Haze
4:40 PM 86.0 °F 51.8 °F 31% 29.83 in 20.0 mi NW 17.3 mph - N/A   Clear
5:40 PM 82.4 °F 50.0 °F 32% 29.85 in 20.0 mi NW 16.1 mph - N/A   Clear
6:41 PM 75.2 °F 59.0 °F 57% 29.89 in 20.0 mi Calm Calm - N/A   Clear
7:35 PM 69 °F 63 °F 74% 29.96 in 6 mi Calm Calm - -  
7:40 PM 73.4 °F 59.0 °F 61% 29.90 in 20.0 mi Calm Calm - N/A   Clear
8:40 PM 68.0 °F 59.0 °F 73% 29.95 in 20.0 mi Calm Calm - N/A   Clear
9:41 PM 64.4 °F 59.0 °F 83% 29.96 in 10.0 mi Calm Calm - N/A   Clear
10:40 PM 59 °F 40 °F 37% 29.99 in 6 mi Calm Calm - -